Regional Weather Roundup
Issued by NWS Cleveland, OH

Home | Current Version | Previous Version | Graphics & Text | Print | Product List | Glossary On
Versions: 1 2 3 4 5 6 7 8 9 10 11 12 13 14 15 16 17 18 19 20 21 22 23 24 25 26 27 28 29 30 31 32 33 34 35 36 37 38 39 40 41 42 43 44 45 46 47 48 49 50
000
ASUS41 KCLE 311300
RWRCLE
OHIO REGIONAL WEATHER ROUNDUP
NATIONAL WEATHER SERVICE WILMINGTON, OH
900 AM EDT THU JUL 31 2014

NOTE: "FAIR" INDICATES FEW OR NO CLOUDS BELOW 12,000 FEET WITH NO
SIGNIFICANT WEATHER AND/OR OBSTRUCTIONS TO VISIBILITY.

OHZ001>008-015>018-024>027-034-035-043-044-311400-
   NORTHWEST OHIO

CITY           SKY/WX    TMP DP  RH WIND       PRES   REMARKS
DEFIANCE       SUNNY     63  58  83 SW3       30.07R
FINDLAY        SUNNY     65  59  81 W5        30.06S
TOLEDO EXPRESS SUNNY     61  55  81 SW3       30.05S
TOLEDO METCALF SUNNY     62  55  77 SW7       30.06S
LIMA           CLOUDY    63  61  93 CALM      30.08R FOG
$$

OHZ009>014-019>023-028>033-038-089-311400-
   NORTHEAST OHIO

CITY           SKY/WX    TMP DP  RH WIND       PRES   REMARKS
CLE-HOPKINS    MOSUNNY   63  59  87 SW7       30.07R FOG
CLE-LAKEFRONT  SUNNY     65  58  78 SW8       30.03S
CUY CO. ARPT   MOSUNNY   66  63  88 SW12      30.05R
LORAIN-ELYRIA  SUNNY     65  58  78 SW8       30.06S
ASHTABULA      PTSUNNY   63  60  90 SW6       30.05S
AKRON-CANTON   PTSUNNY   63  59  87 SW7       30.08R FOG
WOOSTER        NOT AVBL
MANSFIELD      SUNNY     65  60  84 SW7       30.08S
YOUNGSTOWN     CLOUDY    62  59  90 SW9       30.07R FOG
$$

OHZ042-051>053-060>062-070>072-077>081-311400-
  SOUTHWEST OHIO

CITY           SKY/WX    TMP DP  RH WIND       PRES   REMARKS
CINC-COVINGTON SUNNY     69  61  75 W5        30.10R
CINC-LUNKEN    SUNNY     67  63  87 CALM      30.10R
HAMILTON       SUNNY     68  63  84 CALM      30.10S
DAYTON         NOT AVBL
WRIGHT-PAT AFB NOT AVBL
DAYTON GENERAL SUNNY     66  62  87 SW5       30.09R
WILMINGTON     SUNNY     66  61  84 SW6       30.10R
$$

OHZ036-037-039>041-045>050-054>059-063>069-073>076-082>088-311400-
  CENTRAL AND SOUTHEAST OHIO

CITY           SKY/WX    TMP DP  RH WIND       PRES   REMARKS
COLUMBUS       SUNNY     66  59  78 CALM      30.08S
OSU AIRPORT    SUNNY     66  60  81 SW5       30.08S
BOLTON FIELD   SUNNY     64  61  88 SW6       30.08F
RICKENBACK AFB NOT AVBL
NEWARK         SUNNY     65  60  84 W6        30.08S
MARION         SUNNY     66  61  84 SW5       30.08R
LANCASTER      SUNNY     67  60  78 SW3       30.09S
ZANESVILLE     SUNNY     64  59  83 CALM      30.09S
NEW PHILLY     SUNNY     64  61  90 VRB3      30.09S
$$



USA.gov is the U.S. government's official web portal to all federal, state and local government web resources and services.